Weather History for West Palm Beach, FL

Change the Weather History Date:

Sunday, May 5, 2013

  Actual Average Record
Temperature  
Mean Temperature 72 °F 77 °F  
Max Temperature 79 °F 84 °F 91 °F (1951)
Min Temperature 65 °F 69 °F 45 °F (1921)
Degree Days  
Heating Degree Days 0 0  
Month to date heating degree days 0 0  
Since 1 July heating degree days 164 233  
Cooling Degree Days 7 12  
Month to date cooling degree days 47 56  
Year to date cooling degree days 874 751  
Growing Degree Days 22 (Base 50)    
Moisture  
Dew Point 61 °F    
Average Humidity 69    
Maximum Humidity 100    
Minimum Humidity 38    
Precipitation  
Precipitation 0.00 in 0.08 in 7.04 in (1958)
Month to date precipitation 3.80 0.41  
Year to date precipitation 13.08 14.61  
Snow  
Snow 0.00 in - - ()
Month to date snowfall 0.0  
Since 1 July snowfall 0.0  
Snow Depth 0.00 in    
Sea Level Pressure  
Sea Level Pressure 29.84 in    
Wind  
Wind Speed 9 mph (WNW)    
Max Wind Speed 16 mph    
Max Gust Speed 24 mph    
Visibility 10 miles    
Events      
T = Trace of Precipitation, MM = Missing Value Source: NWS Daily Summary

Daily Weather History Graph

Daily Weather History Graph

Search for Another Location

Airport:

Trip Planner

Search our weather history database for the weather conditions in past years. The results will help you decide how hot, cold, wet, or windy it might be!

Date:

Astronomy

May. 05, 2013 Rise Set
Actual Time 6:39 AM EDT 7:55 PM EDT
Civil Twilight 6:14 AM EDT 8:19 PM EDT
Nautical Twilight 5:45 AM EDT 8:49 PM EDT
Astronomical Twilight 5:15 AM EDT 9:19 PM EDT
Moon 3:45 AM EDT (5/5) 4:13 PM EDT (5/5)
Length of Visible Light 14h 05m
Length of Day
13h 16m
Waning Crescent, 18% of the Moon is Illuminated
May 5
Waning Crescent
May 9
New
May 18
First Quarter
May 25
Full
May 31
Last Quarter

Hourly Weather History & Observations

Time (EDT) Temp. Dew Point Humidity Pressure Visibility Wind Dir Wind Speed Gust Speed Precip Events Conditions
12:53 AM 69.1 °F 64.9 °F 87% 29.80 in 10.0 mi West 9.2 mph - N/A   Partly Cloudy
1:53 AM 69.1 °F 64.9 °F 87% 29.78 in 10.0 mi West 9.2 mph - N/A   Clear
2:53 AM 68.0 °F 64.9 °F 90% 29.76 in 10.0 mi West 9.2 mph - N/A   Partly Cloudy
3:53 AM 66.0 °F 64.9 °F 96% 29.76 in 10.0 mi West 9.2 mph - N/A   Scattered Clouds
4:53 AM 66.9 °F 64.9 °F 93% 29.77 in 10.0 mi West 8.1 mph - N/A   Partly Cloudy
5:35 AM 66.2 °F 66.2 °F 100% 29.78 in 10.0 mi West 5.8 mph - N/A   Mostly Cloudy
5:53 AM 68.0 °F 66.0 °F 93% 29.78 in 10.0 mi West 6.9 mph - N/A   Mostly Cloudy
6:34 AM 66.2 °F 66.2 °F 100% 29.80 in 10.0 mi West 6.9 mph - N/A   Scattered Clouds
6:53 AM 66.9 °F 66.0 °F 97% 29.81 in 10.0 mi West 4.6 mph - N/A   Partly Cloudy
7:11 AM 66.2 °F 66.2 °F 100% 29.82 in 10.0 mi West 8.1 mph - N/A   Mostly Cloudy
7:36 AM 68.0 °F 66.2 °F 94% 29.83 in 10.0 mi WNW 9.2 mph - N/A   Scattered Clouds
7:53 AM 69.1 °F 66.0 °F 90% 29.83 in 10.0 mi WNW 11.5 mph - N/A   Scattered Clouds
8:53 AM 71.1 °F 64.0 °F 78% 29.85 in 10.0 mi WNW 13.8 mph - N/A   Scattered Clouds
9:01 AM 71.6 °F 64.4 °F 78% 29.85 in 10.0 mi WNW 11.5 mph - N/A   Mostly Cloudy
9:53 AM 73.9 °F 64.0 °F 71% 29.86 in 10.0 mi NW 12.7 mph - N/A   Mostly Cloudy
10:53 AM 75.9 °F 63.0 °F 64% 29.88 in 10.0 mi NW 12.7 mph - N/A   Mostly Cloudy
11:24 AM 77.0 °F 62.6 °F 61% 29.88 in 10.0 mi WNW 11.5 mph - N/A   Mostly Cloudy
11:53 AM 75.9 °F 63.0 °F 64% 29.88 in 10.0 mi WNW 11.5 mph - N/A   Mostly Cloudy
12:53 PM 78.1 °F 62.1 °F 58% 29.87 in 10.0 mi NW 9.2 mph - N/A   Mostly Cloudy
1:53 PM 79.0 °F 63.0 °F 58% 29.86 in 10.0 mi NW 6.9 mph - N/A   Mostly Cloudy
2:53 PM 78.1 °F 61.0 °F 56% 29.85 in 10.0 mi NW 8.1 mph 16.1 mph N/A   Mostly Cloudy
3:53 PM 78.1 °F 60.1 °F 54% 29.84 in 10.0 mi West 11.5 mph 18.4 mph N/A   Scattered Clouds
4:53 PM 78.1 °F 55.9 °F 46% 29.84 in 10.0 mi West 10.4 mph 16.1 mph N/A   Scattered Clouds
5:53 PM 78.1 °F 52.0 °F 40% 29.85 in 10.0 mi WNW 9.2 mph - N/A   Scattered Clouds
6:53 PM 75.9 °F 48.0 °F 37% 29.86 in 10.0 mi WNW 10.4 mph - N/A   Scattered Clouds
7:53 PM 71.1 °F 52.0 °F 51% 29.88 in 10.0 mi West 6.9 mph - N/A   Partly Cloudy
8:53 PM 69.1 °F 51.1 °F 53% 29.91 in 10.0 mi WNW 4.6 mph - N/A   Clear
9:53 PM 66.0 °F 52.0 °F 60% 29.92 in 10.0 mi WNW 6.9 mph - N/A   Clear
10:53 PM 66.0 °F 52.0 °F 60% 29.93 in 10.0 mi NW 5.8 mph - N/A   Clear
11:53 PM 66.0 °F 52.0 °F 60% 29.93 in 10.0 mi NNW 8.1 mph - N/A   Clear